Time,TemperatureF,DewpointF,PressureIn,WindDirection,WindDirectionDegrees,WindSpeedMPH,WindSpeedGustMPH,Humidity,HourlyPrecipIn,Conditions,Clouds,dailyrainin,SolarRadiationWatts/m^2,SoftwareType,DateUTC
2013-02-16 01:00:00,22.0,19.0,-100.00,NW,315,1.0,-999.0,87,-99.99,,,-99.99,0.000000,,2013-02-16 06:00:00,
2013-02-16 01:42:00,22.0,19.0,-100.00,NW,315,1.0,-999.0,87,-99.99,,,-99.99,0.000000,,2013-02-16 06:42:00,
2013-02-16 01:52:00,22.0,19.0,-100.00,NW,315,1.0,-999.0,87,-99.99,,,-99.99,0.000000,,2013-02-16 06:52:00,
2013-02-16 02:00:00,22.0,19.0,-100.00,NW,315,1.0,-999.0,90,-99.99,,,-99.99,0.000000,,2013-02-16 07:00:00,
2013-02-16 02:42:00,22.0,19.0,-100.00,NW,315,1.0,-999.0,90,-99.99,,,-99.99,0.000000,,2013-02-16 07:42:00,
2013-02-16 02:53:00,22.0,19.0,-100.00,NW,315,1.0,-999.0,90,-99.99,,,-99.99,0.000000,,2013-02-16 07:53:00,
2013-02-16 03:00:00,21.0,20.0,-100.00,NW,315,2.0,-999.0,96,-99.99,,,-99.99,0.000000,,2013-02-16 08:00:00,
2013-02-16 03:42:00,21.0,20.0,-100.00,NW,315,2.0,-999.0,96,-99.99,,,-99.99,0.000000,,2013-02-16 08:42:00,
2013-02-16 03:52:00,21.0,20.0,-100.00,NW,315,2.0,-999.0,96,-99.99,,,-99.99,0.000000,,2013-02-16 08:52:00,
2013-02-16 05:00:00,21.0,15.0,-100.00,NW,315,8.0,-999.0,76,-99.99,,,-99.99,0.000000,,2013-02-16 10:00:00,
2013-02-16 05:42:00,21.0,15.0,-100.00,NW,315,8.0,-999.0,76,-99.99,,,-99.99,0.000000,,2013-02-16 10:42:00,
2013-02-16 05:52:00,21.0,15.0,-100.00,NW,315,8.0,-999.0,76,-99.99,,,-99.99,0.000000,,2013-02-16 10:52:00,
2013-02-16 06:00:00,21.0,12.0,-100.00,NW,315,8.0,-999.0,67,-99.99,,,-99.99,0.000000,,2013-02-16 11:00:00,
2013-02-16 06:42:00,21.0,12.0,-100.00,NW,315,8.0,-999.0,67,-99.99,,,-99.99,0.000000,,2013-02-16 11:42:00,
2013-02-16 06:52:00,21.0,12.0,-100.00,NW,315,8.0,-999.0,67,-99.99,,,-99.99,0.000000,,2013-02-16 11:52:00,
2013-02-16 09:00:00,19.0,17.0,-100.00,NW,315,9.0,-999.0,93,-99.99,,,-99.99,48.720001,,2013-02-16 14:00:00,
2013-02-16 09:42:00,19.0,17.0,-100.00,NW,315,9.0,-999.0,93,-99.99,,,-99.99,48.720001,,2013-02-16 14:42:00,
2013-02-16 09:52:00,19.0,17.0,-100.00,NW,315,9.0,-999.0,93,-99.99,,,-99.99,48.720001,,2013-02-16 14:52:00,
2013-02-16 10:00:00,18.0,16.0,-100.00,NW,315,11.0,-999.0,88,-99.99,,,-99.99,106.720001,,2013-02-16 15:00:00,
2013-02-16 10:42:00,18.0,16.0,-100.00,NW,315,11.0,-999.0,88,-99.99,,,-99.99,106.720001,,2013-02-16 15:42:00,
2013-02-16 10:52:00,18.0,16.0,-100.00,NW,315,11.0,-999.0,88,-99.99,,,-99.99,106.720001,,2013-02-16 15:52:00,
2013-02-16 11:00:00,19.0,10.0,-100.00,NW,315,14.0,-999.0,69,-99.99,,,-99.99,252.880005,,2013-02-16 16:00:00,
2013-02-16 11:42:00,19.0,10.0,-100.00,NW,315,14.0,-999.0,69,-99.99,,,-99.99,252.880005,,2013-02-16 16:42:00,
2013-02-16 11:52:00,19.0,10.0,-100.00,NW,315,14.0,-999.0,69,-99.99,,,-99.99,252.880005,,2013-02-16 16:52:00,
2013-02-16 12:00:00,19.0,9.0,-100.00,NW,315,14.0,-999.0,64,-99.99,,,-99.99,343.359985,,2013-02-16 17:00:00,
2013-02-16 12:42:00,19.0,9.0,-100.00,NW,315,14.0,-999.0,64,-99.99,,,-99.99,343.359985,,2013-02-16 17:42:00,
2013-02-16 12:52:00,19.0,9.0,-100.00,NW,315,14.0,-999.0,64,-99.99,,,-99.99,343.359985,,2013-02-16 17:52:00,
2013-02-16 13:00:00,19.0,10.0,-100.00,WNW,292,13.0,-999.0,67,-99.99,,,-99.99,403.679993,,2013-02-16 18:00:00,
2013-02-16 13:42:00,19.0,10.0,-100.00,WNW,292,13.0,-999.0,67,-99.99,,,-99.99,403.679993,,2013-02-16 18:42:00,
2013-02-16 13:52:00,19.0,10.0,-100.00,WNW,292,13.0,-999.0,67,-99.99,,,-99.99,403.679993,,2013-02-16 18:52:00,
2013-02-16 14:00:00,18.0,8.0,-100.00,WNW,292,14.0,-999.0,66,-99.99,,,-99.99,383.959991,,2013-02-16 19:00:00,
2013-02-16 14:42:00,18.0,8.0,-100.00,WNW,292,14.0,-999.0,66,-99.99,,,-99.99,383.959991,,2013-02-16 19:42:00,
2013-02-16 14:52:00,18.0,8.0,-100.00,WNW,292,14.0,-999.0,66,-99.99,,,-99.99,383.959991,,2013-02-16 19:52:00,
2013-02-16 15:00:00,17.0,10.0,-100.00,WNW,292,13.0,-999.0,73,-99.99,,,-99.99,281.880005,,2013-02-16 20:00:00,
2013-02-16 15:42:00,17.0,10.0,-100.00,WNW,292,13.0,-999.0,73,-99.99,,,-99.99,281.880005,,2013-02-16 20:42:00,
2013-02-16 15:52:00,17.0,10.0,-100.00,WNW,292,13.0,-999.0,73,-99.99,,,-99.99,281.880005,,2013-02-16 20:52:00,
2013-02-16 17:00:00,16.0,9.0,-100.00,West,270,10.0,-999.0,73,-99.99,,,-99.99,120.639999,,2013-02-16 22:00:00,
2013-02-16 17:42:00,16.0,9.0,-100.00,West,270,10.0,-999.0,73,-99.99,,,-99.99,120.639999,,2013-02-16 22:42:00,
2013-02-16 17:52:00,16.0,9.0,-100.00,West,270,10.0,-999.0,73,-99.99,,,-99.99,120.639999,,2013-02-16 22:52:00,
2013-02-16 18:00:00,16.0,8.0,-100.00,West,270,7.0,-999.0,69,-99.99,,,-99.99,51.040001,,2013-02-16 23:00:00,
2013-02-16 18:42:00,16.0,8.0,-100.00,West,270,7.0,-999.0,69,-99.99,,,-99.99,51.040001,,2013-02-16 23:42:00,
2013-02-16 18:52:00,16.0,8.0,-100.00,West,270,7.0,-999.0,69,-99.99,,,-99.99,51.040001,,2013-02-16 23:52:00,
2013-02-16 19:00:00,16.0,8.0,-100.00,West,270,5.0,-999.0,69,-99.99,,,-99.99,2.320000,,2013-02-17 00:00:00,
2013-02-16 19:42:00,16.0,8.0,-100.00,West,270,5.0,-999.0,69,-99.99,,,-99.99,2.320000,,2013-02-17 00:42:00,
2013-02-16 19:52:00,16.0,8.0,-100.00,West,270,5.0,-999.0,69,-99.99,,,-99.99,2.320000,,2013-02-17 00:52:00,
2013-02-16 21:00:00,15.0,13.0,-100.00,West,270,4.0,-999.0,90,-99.99,,,-99.99,0.000000,,2013-02-17 02:00:00,
2013-02-16 21:42:00,15.0,13.0,-100.00,West,270,4.0,-999.0,90,-99.99,,,-99.99,0.000000,,2013-02-17 02:42:00,
2013-02-16 21:52:00,15.0,13.0,-100.00,West,270,4.0,-999.0,90,-99.99,,,-99.99,0.000000,,2013-02-17 02:52:00,
2013-02-16 22:00:00,17.0,15.0,-100.00,West,270,4.0,-999.0,92,-99.99,,,-99.99,0.000000,,2013-02-17 03:00:00,
2013-02-16 22:42:00,17.0,15.0,-100.00,West,270,4.0,-999.0,92,-99.99,,,-99.99,0.000000,,2013-02-17 03:42:00,
2013-02-16 22:52:00,17.0,15.0,-100.00,West,270,4.0,-999.0,92,-99.99,,,-99.99,0.000000,,2013-02-17 03:52:00,
2013-02-16 23:00:00,18.0,15.0,-100.00,West,270,5.0,-999.0,90,-99.99,,,-99.99,0.000000,,2013-02-17 04:00:00,
2013-02-16 23:42:00,18.0,15.0,-100.00,West,270,5.0,-999.0,90,-99.99,,,-99.99,0.000000,,2013-02-17 04:42:00,
2013-02-16 23:52:00,18.0,15.0,-100.00,West,270,5.0,-999.0,90,-99.99,,,-99.99,0.000000,,2013-02-17 04:52:00,